CDT,Max TemperatureF,Mean TemperatureF,Min TemperatureF,Max Dew PointF,MeanDew PointF,Min DewpointF,Max Humidity, Mean Humidity, Min Humidity, Max Sea Level PressureIn, Mean Sea Level PressureIn, Min Sea Level PressureIn, Max VisibilityMiles, Mean VisibilityMiles, Min VisibilityMiles, Max Wind SpeedMPH, Mean Wind SpeedMPH, Max Gust SpeedMPH,PrecipitationIn, CloudCover, Events, WindDirDegrees
2011-10-1,89,81,72,72,69,63,93,74,55,30.10,30.05,29.99,10,10,7,20,6,25,0.03,2,Rain-Thunderstorm,27
2011-10-2,86,76,66,66,62,58,87,64,40,30.15,30.11,30.07,10,10,10,16,6,21,0.00,1,,35
2011-10-3,86,75,63,66,60,57,93,67,40,30.18,30.12,30.09,10,10,10,14,5,18,0.00,0,,53
2011-10-4,89,77,64,66,64,60,87,65,43,30.16,30.09,30.04,10,10,10,18,5,23,0.00,1,,59
2011-10-5,90,80,69,69,66,64,90,68,46,30.06,30.01,29.95,10,10,10,21,7,25,0.00,1,,116
2011-10-6,91,80,69,71,68,65,90,69,47,29.97,29.93,29.88,10,10,10,20,7,24,0.00,1,,133
2011-10-7,92,84,75,74,73,71,94,75,56,29.96,29.93,29.89,10,10,10,24,12,30,0.00,2,,134
2011-10-8,91,83,75,74,72,68,94,72,50,29.95,29.90,29.83,10,9,5,23,12,30,0.24,4,Rain-Thunderstorm,134
2011-10-9,92,83,74,76,73,70,94,75,56,29.91,29.84,29.78,10,9,0,35,9,45,0.71,4,Rain,112
2011-10-10,86,79,72,74,72,69,100,83,65,29.97,29.91,29.87,10,10,7,17,7,23,T,4,,355
2011-10-11,88,79,69,73,70,69,100,79,57,29.91,29.87,29.82,10,10,7,14,5,20,0.00,1,,42
2011-10-12,89,81,73,74,71,67,94,72,50,29.83,29.79,29.73,10,10,10,14,6,22,0.00,0,,156
2011-10-13,91,80,68,77,72,68,100,80,60,29.91,29.86,29.81,10,9,1,22,5,29,0.27,2,Rain,26
2011-10-14,89,77,64,71,64,57,100,68,36,29.98,29.93,29.88,10,6,0,10,5,16,0.00,0,Fog,12
2011-10-15,88,75,62,70,65,61,93,72,50,30.02,29.97,29.93,10,10,10,14,4,17,0.00,0,,56
2011-10-16,88,79,69,72,68,65,100,74,48,30.05,29.99,29.94,10,10,7,15,5,20,0.00,1,,70
2011-10-17,91,79,67,71,68,65,100,72,44,29.96,29.86,29.76,10,10,10,16,4,21,0.00,0,,132
2011-10-18,85,75,65,73,60,41,100,62,23,30.08,29.87,29.70,10,10,8,22,9,30,0.00,3,,348
2011-10-19,81,67,53,46,40,33,67,43,18,30.19,30.12,30.08,10,10,10,20,7,30,0.00,0,,342
2011-10-20,84,68,52,58,52,46,77,55,33,30.14,30.08,30.03,10,10,10,18,7,26,0.00,0,,152
2011-10-21,87,76,64,66,63,59,87,68,48,30.11,30.07,30.04,10,10,10,23,10,30,0.00,2,,140
2011-10-22,87,77,67,64,62,61,79,62,45,30.08,30.03,29.98,10,10,10,21,10,31,0.00,1,,142
2011-10-23,88,76,64,65,63,60,87,65,43,30.09,29.99,29.94,10,10,10,23,9,28,0.00,0,,158
2011-10-24,88,77,65,66,63,62,93,68,43,30.16,30.12,30.08,10,10,10,16,7,21,0.00,0,,144
2011-10-25,88,77,65,67,64,62,87,67,46,30.14,30.07,30.00,10,10,10,20,8,24,0.00,1,,152
2011-10-26,88,77,65,67,64,61,93,67,40,30.00,29.91,29.84,10,10,10,23,10,30,0.00,1,,155
2011-10-27,89,78,67,68,66,64,90,68,46,29.91,29.81,29.75,10,10,10,23,9,29,0.00,0,,167
2011-10-28,73,66,59,66,49,44,87,64,41,30.25,30.11,29.90,10,10,10,23,12,31,0.00,4,,339
2011-10-29,74,64,54,52,47,42,83,61,38,30.32,30.22,30.13,10,10,10,16,8,21,0.00,0,,352
2011-10-30,82,67,52,58,55,50,93,69,45,30.15,30.09,30.05,10,10,10,15,4,21,0.00,1,,79
2011-10-31,83,70,57,59,56,55,93,67,40,30.19,30.14,30.10,10,10,10,14,5,17,0.00,0,,48